RH
26 23 20 20 20 20 20 19 16 12 9 8 8 9 10 9 9 8 7 6 7 7 8 9 11 11 11 11 9 8 8 7 7 6 6 6 6 6 6 6 6 6 6 6 6 6 6 6 6 6 6 6 6 6 5 5 5 5 4 4 4 4 4 4 4 3 4 3 4 3 3 4 3 4 5 5 5 7 13 23 29 29 24 24 25 27
23 20 20 21 21 21 18 14 10 7 7 9 10 10 9 7 7 7 7 7 8 8 9 10 11 11 10 9 8 8 7 7 7 7 7 7 7 7 7 6 6 6 6 7 6 6 7 6 6 7 6 6 6 6 6 5 5 5 4 4 4 4 4 3 4 3 4 3 3 4 3 3 4 3 3 4 5 5 6 10 19 29 31 28 26 27
20 20 21 21 20 17 12 8 7 8 10 10 9 8 8 7 7 8 8 8 9 9 10 10 10 10 10 9 8 8 8 7 7 7 7 7 7 7 7 7 7 7 7 7 7 7 7 7 7 7 7 7 6 6 6 5 6 5 5 5 4 4 4 4 4 3 4 4 4 4 4 3 3 4 3 3 4 4 5 5 7 16 26 32 31 29
20 21 21 19 15 10 7 7 9 10 10 9 8 8 8 9 8 8 9 9 9 9 10 10 10 10 10 9 9 8 8 8 8 8 8 7 8 8 8 8 8 8 8 8 8 8 8 8 8 8 7 7 7 7 7 6 6 6 6 6 6 5 5 5 5 4 4 4 5 4 4 5 4 4 4 4 4 3 4 5 5 6 12 24 31 34
21 20 18 12 8 7 7 10 10 10 9 8 9 9 9 9 9 8 8 8 9 10 10 10 9 9 10 10 9 10 9 9 9 8 8 8 8 9 8 9 9 8 9 9 9 9 9 9 8 9 8 8 8 8 8 8 8 8 7 7 7 7 7 6 5 5 5 5 6 6 5 5 5 5 5 5 6 5 4 4 5 6 5 10 20 30
19 15 11 7 6 8 10 10 10 10 10 9 9 9 9 9 8 7 8 8 9 10 10 10 10 10 11 11 10 11 10 10 10 9 10 10 9 10 9 9 10 10 9 9 10 9 10 10 10 10 10 10 10 10 10 9 9 9 9 9 9 8 8 8 7 6 6 6 6 7 7 7 6 6 6 7 10 12 11 9 7 8 7 6 8 17
14 9 6 7 8 10 11 10 10 10 10 10 10 10 9 8 8 8 9 10 10 11 12 12 12 11 11 12 12 12 12 12 11 11 11 11 11 11 11 11 11 11 11 11 11 11 11 11 11 11 11 12 11 11 11 11 11 11 11 11 10 10 9 9 8 8 7 7 8 8 9 9 8 8 7 8 12 20 24 23 20 15 12 9 7 9
8 6 6 9 10 11 11 11 11 11 11 11 10 9 9 8 8 9 9 10 11 12 13 13 14 13 13 14 14 14 14 14 13 14 13 13 13 13 13 13 13 13 13 13 13 13 13 13 13 13 13 13 13 13 13 13 13 12 13 13 12 12 11 11 10 9 9 9 9 10 11 12 10 9 9 9 12 24 35 40 40 35 27 19 13 11
6 6 8 10 11 11 11 12 12 11 11 11 10 9 10 9 10 10 10 11 13 14 15 15 15 15 15 16 17 16 16 16 16 16 16 16 15 15 16 16 16 16 15 16 16 15 15 15 15 15 15 16 16 16 15 15 15 15 15 16 16 15 14 14 13 12 11 11 11 11 13 15 15 13 12 11 12 22 39 52 57 56 51 41 28 20
6 8 10 11 11 12 12 12 12 11 11 11 11 10 10 11 11 11 12 13 14 15 16 18 19 18 18 19 20 19 19 19 19 19 19 19 19 18 19 19 19 19 18 18 18 18 18 17 17 17 17 18 19 18 18 18 17 18 19 20 20 20 19 17 16 15 14 13 13 13 15 17 18 17 15 15 14 17 32 52 66 70 68 64 54 39
8 9 11 11 11 12 12 12 12 12 12 12 12 12 12 13 13 13 14 14 15 16 18 20 22 22 22 22 22 22 22 23 23 23 22 22 22 22 22 23 22 22 21 21 20 20 21 20 20 20 20 21 22 22 21 21 20 21 23 24 25 25 25 23 21 20 18 16 16 15 16 19 22 21 18 17 17 16 20 36 59 75 78 75 72 63
10 10 11 12 12 13 12 12 13 12 13 13 14 15 15 15 15 15 16 16 16 18 20 22 24 26 26 26 26 25 25 26 26 26 26 26 26 26 26 26 26 25 24 24 24 24 24 24 24 24 24 25 26 27 26 25 25 25 26 27 29 30 30 29 27 26 24 21 19 18 17 18 22 26 24 19 17 17 17 21 38 62 80 83 80 78
10 11 12 13 13 13 13 14 14 14 15 16 17 18 18 19 19 18 18 18 19 20 21 24 26 27 29 31 31 29 29 30 30 31 31 32 31 31 31 31 30 29 28 27 28 27 27 28 29 28 29 30 31 31 31 31 30 29 30 31 33 35 35 34 34 32 31 28 24 21 20 18 19 23 26 25 19 17 16 17 21 35 59 78 84 84
11 12 13 14 14 15 15 16 16 17 18 19 20 20 21 23 22 22 21 20 21 21 23 26 27 29 33 36 35 33 34 34 33 35 36 36 36 35 35 35 34 32 31 31 32 31 30 31 32 32 32 33 35 36 36 36 35 34 35 36 38 40 41 40 39 39 37 36 32 27 23 21 21 21 23 26 25 20 16 15 16 19 30 52 71 82
11 13 14 14 16 16 17 18 18 19 20 21 23 23 24 26 26 27 26 26 25 22 23 26 27 30 37 41 40 37 37 38 36 36 37 37 39 39 38 39 38 36 36 36 37 36 35 36 36 36 36 37 39 41 41 41 40 40 40 40 42 44 47 47 46 46 44 42 40 35 29 25 23 23 22 23 24 24 22 16 14 16 18 27 44 64
12 14 15 15 17 18 19 20 20 21 22 23 25 26 27 28 29 31 31 31 31 26 24 25 25 29 37 45 47 41 38 41 40 39 38 37 39 40 41 42 41 40 40 41 43 42 40 41 41 40 40 41 44 45 46 46 45 45 45 44 45 46 49 52 53 53 52 50 47 42 37 31 26 25 24 23 23 23 24 22 17 14 14 17 24 36
13 15 16 17 18 19 21 22 23 24 25 26 28 29 31 32 32 35 34 34 35 31 27 25 23 26 36 48 52 47 42 42 41 41 39 38 40 41 43 45 45 45 46 48 49 47 45 46 46 45 44 44 47 49 49 50 49 49 50 49 49 49 50 54 57 58 57 56 54 49 44 38 32 28 26 25 26 23 23 24 22 17 13 12 17 22
14 16 17 19 20 21 23 24 25 27 27 29 31 32 34 35 36 38 38 37 39 37 32 29 25 24 35 52 59 56 50 45 42 43 41 40 42 43 45 49 49 50 52 53 54 52 50 51 51 49 48 48 50 52 52 52 52 52 53 53 52 52 51 53 57 60 61 59 59 57 52 46 39 33 29 27 27 27 24 23 22 21 17 12 12 15
15 16 18 20 21 23 24 26 27 29 30 31 33 35 38 39 40 41 42 42 44 44 40 34 28 23 35 56 64 60 55 51 49 48 46 46 47 48 50 53 54 54 56 58 58 56 54 56 57 54 53 53 55 56 56 56 56 56 57 57 57 56 54 55 56 59 62 61 62 64 61 54 46 39 33 30 28 28 27 25 22 21 20 16 11 11
16 17 19 21 22 24 25 27 29 30 31 32 34 38 40 43 45 45 45 47 49 52 50 44 32 21 34 59 65 61 60 61 59 53 50 52 52 53 55 57 59 60 62 64 64 62 59 61 63 61 59 61 61 61 61 61 61 61 61 61 60 59 58 57 58 59 61 62 63 67 68 63 55 46 38 33 30 30 30 28 24 20 19 18 15 10
17 18 20 22 23 25 26 28 30 31 33 34 36 40 42 46 49 48 48 50 53 57 59 58 42 20 33 64 71 67 68 72 70 60 55 58 57 56 59 62 64 65 67 71 70 67 64 65 68 68 67 69 68 67 67 66 66 65 65 64 62 62 62 61 61 61 63 65 65 66 68 69 64 54 45 37 32 32 33 32 27 21 17 16 16 13
18 19 21 22 24 25 27 28 30 32 33 34 37 40 44 49 51 52 52 51 55 58 60 67 55 24 34 70 75 68 72 78 78 68 61 64 63 60 62 66 69 70 72 75 74 70 67 67 72 75 75 77 75 74 74 73 72 70 68 67 65 64 64 64 64 65 66 68 69 68 68 72 72 63 53 43 36 34 36 36 29 21 16 14 14 14
19 19 21 22 23 25 26 28 30 32 33 35 38 41 45 50 52 55 57 56 58 57 59 74 65 29 36 69 70 64 74 82 80 72 69 72 69 66 67 69 72 75 75 76 75 72 68 70 77 81 82 84 82 80 82 81 78 75 73 71 69 68 67 67 67 69 71 74 75 73 70 72 76 72 61 49 39 36 38 39 31 20 14 13 12 13
19 20 21 22 23 24 26 28 31 32 34 36 38 42 47 50 52 56 59 61 60 57 62 81 71 36 39 65 65 65 80 85 80 77 78 78 76 73 72 73 76 79 78 78 75 71 70 74 81 85 86 88 86 85 86 86 84 80 78 76 73 71 70 70 72 74 77 81 82 80 75 73 75 77 71 57 44 38 41 42 33 19 13 13 13 12
19 20 21 22 22 24 26 29 32 34 36 38 39 44 49 50 53 57 60 62 59 58 68 80 72 49 46 61 65 71 88 89 81 83 86 83 83 81 77 77 81 82 80 78 75 72 73 79 84 87 90 91 89 88 89 90 88 85 82 79 77 75 73 74 77 79 83 87 89 87 82 76 74 78 78 66 50 40 42 46 34 19 15 17 15 14
19 20 21 21 22 25 27 30 33 35 38 40 41 46 50 51 54 59 62 61 59 65 71 70 70 64 54 58 68 82 97 92 80 85 89 87 88 86 81 83 85 84 82 77 75 75 79 84 87 91 94 93 92 92 92 92 91 89 84 81 80 78 77 79 83 85 88 92 93 92 88 81 76 79 81 74 58 43 44 49 36 19 19 22 19 16
19 19 20 21 23 25 28 32 35 37 40 42 43 48 51 52 57 62 63 61 64 75 71 61 72 78 61 57 72 87 96 91 80 84 89 89 92 90 86 88 89 87 83 79 78 83 86 88 91 94 96 97 97 96 95 94 93 90 84 82 82 81 82 85 86 88 92 94 96 96 92 86 81 80 82 79 65 48 47 52 38 20 22 28 24 18
18 19 20 22 24 26 30 34 37 40 42 44 46 50 51 55 61 64 63 66 74 83 74 64 78 85 68 66 83 92 95 90 84 87 90 91 96 97 94 96 97 93 87 83 86 91 91 92 95 98 100 101 102 99 95 95 94 89 85 84 84 85 86 86 83 86 92 95 98 99 95 91 85 81 82 82 70 54 52 56 40 21 24 33 30 22
18 19 21 22 24 27 31 35 39 41 43 46 48 51 54 59 64 65 67 75 82 84 78 75 84 84 73 78 94 98 96 90 83 87 94 98 103 103 101 103 103 97 90 91 96 97 96 97 99 101 103 103 102 97 95 95 93 89 87 86 88 88 84 77 74 80 91 96 99 99 97 93 86 80 81 86 76 60 58 60 42 22 24 34 34 27
19 20 22 23 26 29 32 36 40 42 44 46 48 53 58 62 66 70 73 80 84 84 81 83 87 79 74 87 101 98 90 81 78 87 98 102 105 104 103 103 102 96 95 100 103 101 100 101 102 103 103 101 98 95 94 95 92 89 88 89 88 81 68 59 62 74 89 97 99 99 97 90 82 78 83 90 83 66 63 62 43 23 24 34 37 32
20 21 23 25 28 32 34 37 40 42 44 45 47 54 61 65 70 75 76 80 86 87 85 88 88 78 78 94 100 89 78 73 78 91 101 103 104 104 103 101 98 98 101 103 103 103 103 104 104 104 101 97 95 95 95 93 90 88 88 88 81 63 46 43 53 70 87 98 98 95 90 84 79 81 87 92 86 73 69 64 42 24 25 33 37 34
21 23 25 26 30 35 37 37 41 44 42 42 47 55 62 67 71 75 76 77 83 88 90 93 89 83 88 94 87 76 75 79 85 95 102 104 103 104 103 98 96 101 104 102 101 103 104 104 104 103 97 93 94 95 94 91 87 85 87 83 64 41 30 34 48 67 87 98 94 87 84 82 82 84 87 88 84 78 75 65 42 24 25 33 38 35
23 26 27 28 32 36 38 39 42 44 41 41 49 57 61 65 70 75 74 73 80 91 95 94 89 88 93 89 80 80 84 87 89 94 103 106 104 103 102 99 100 103 102 101 102 103 103 102 103 99 93 92 95 94 92 88 85 85 85 71 44 27 25 31 42 60 79 88 84 78 80 83 82 81 82 81 81 82 78 63 42 26 24 33 39 36
26 28 29 30 33 36 38 41 43 44 42 44 52 58 63 67 72 77 75 72 80 91 95 95 90 87 86 84 86 93 92 87 87 92 101 105 104 104 103 101 103 103 100 101 102 102 101 101 101 95 91 93 96 93 91 88 86 88 81 55 29 22 26 30 36 47 57 67 72 72 75 77 75 75 76 74 79 84 78 61 42 27 24 33 39 37
28 30 30 32 34 36 40 42 44 46 44 46 54 61 67 72 76 84 81 68 72 88 98 97 87 80 82 87 94 100 96 86 81 86 98 105 104 105 104 101 102 102 101 102 101 100 101 101 98 94 93 97 95 92 93 91 90 90 72 39 21 22 24 26 31 36 41 49 57 61 64 66 66 68 70 71 78 83 76 61 44 28 24 32 40 39
29 30 31 34 35 38 42 45 49 51 43 44 56 65 71 77 83 92 82 55 58 90 103 92 81 80 89 94 95 99 96 84 73 78 97 107 103 102 104 101 100 101 101 101 100 100 101 100 96 95 96 96 94 95 97 95 95 89 58 26 20 23 22 23 28 32 37 41 45 49 54 57 60 62 66 71 76 79 74 62 47 31 24 31 40 41
31 32 34 37 39 42 47 49 55 55 42 43 60 70 79 87 93 101 85 50 57 93 101 87 84 89 93 96 95 95 93 83 73 77 96 106 101 100 102 100 100 101 100 100 100 101 101 98 94 94 96 95 96 99 100 99 99 80 42 20 22 23 22 26 29 33 39 41 43 46 49 53 56 59 63 69 72 74 72 65 53 36 25 30 40 43
34 35 37 42 45 49 53 56 62 58 46 51 71 83 92 98 99 102 86 56 63 91 93 85 88 90 91 95 95 92 91 87 81 82 95 102 99 98 101 99 100 101 99 100 101 100 99 97 93 94 95 96 100 103 102 103 98 66 30 21 25 24 24 29 32 38 43 45 47 49 50 53 56 57 61 64 66 68 68 66 60 45 29 28 38 45
39 41 44 49 53 56 61 65 68 61 55 68 88 96 99 99 96 96 85 65 67 83 84 83 86 87 93 99 97 95 97 97 93 92 98 103 100 99 100 99 100 101 99 100 101 99 99 97 94 96 97 98 103 104 104 106 89 50 25 24 27 26 29 32 35 42 46 48 51 52 52 55 56 57 59 60 61 63 64 65 65 55 37 27 34 45
47 49 54 60 63 67 71 72 68 64 69 88 102 101 99 96 92 96 93 79 73 79 83 87 89 92 99 103 100 99 101 101 101 99 100 102 101 99 100 100 100 100 100 100 100 100 100 98 96 97 98 100 103 103 105 103 74 37 24 29 30 30 32 34 39 44 47 51 53 54 56 58 59 60 61 61 61 62 62 63 65 63 50 32 30 43
57 60 65 70 73 76 77 74 71 73 84 99 103 98 98 100 97 99 99 89 85 90 95 98 99 99 102 103 101 101 100 100 101 101 99 101 101 99 100 100 100 100 100 100 100 100 99 97 98 99 100 101 102 103 106 93 57 30 28 32 33 34 35 37 42 46 50 55 58 60 63 64 65 66 65 64 65 64 64 64 65 67 61 42 30 39
67 70 74 79 81 80 77 78 84 89 90 94 96 96 99 101 100 101 100 95 96 102 104 102 102 102 102 103 102 101 101 100 100 100 100 100 100 100 100 100 100 100 100 99 99 100 99 99 99 99 100 101 102 105 103 77 42 29 34 37 36 37 38 40 46 51 55 60 63 67 70 70 71 72 70 68 68 67 68 68 66 69 68 53 36 36
76 80 84 86 85 83 82 89 99 100 96 95 99 102 102 102 102 102 100 94 93 99 104 103 102 101 102 102 101 100 101 101 100 100 101 100 100 101 100 100 100 100 100 100 100 99 100 100 100 100 101 101 104 106 93 59 34 34 40 40 41 41 41 46 52 57 62 66 69 72 75 77 78 77 75 74 72 71 72 71 69 70 70 63 46 35
85 91 92 87 87 91 96 100 102 101 101 103 103 103 103 102 103 105 103 95 91 95 103 105 103 101 100 101 101 100 100 100 100 100 101 100 100 101 100 100 101 100 99 100 100 100 100 100 100 100 100 102 107 103 77 45 36 42 44 44 45 44 46 52 59 65 70 73 75 77 79 81 82 80 79 80 78 77 75 72 70 69 69 67 55 39
93 95 91 86 91 97 97 100 101 96 98 104 104 104 105 101 100 104 105 103 101 101 102 103 102 101 100 101 101 101 100 100 100 100 101 100 100 100 100 100 100 100 100 100 99 100 101 99 100 101 101 105 107 91 61 42 43 47 47 48 49 49 54 61 67 72 77 79 80 81 82 84 84 83 82 83 83 82 79 73 70 67 65 65 60 45
95 91 87 89 94 89 81 89 96 89 87 97 102 102 103 101 98 99 102 104 104 103 102 101 101 101 100 100 100 100 99 100 100 100 100 100 100 100 100 100 100 100 101 100 99 101 100 99 101 101 101 106 101 77 52 47 52 53 52 53 54 56 63 70 75 79 83 85 86 86 85 85 86 86 87 87 86 84 81 76 70 66 61 60 59 51
91 89 91 91 90 83 77 82 80 59 53 74 93 100 105 101 89 85 93 101 103 102 101 101 100 100 100 100 100 100 100 100 100 100 100 100 100 100 100 100 100 100 100 99 100 101 99 100 103 102 102 104 91 66 52 56 60 59 57 57 59 66 74 79 83 86 89 91 92 91 90 88 89 90 91 92 90 86 83 78 71 64 59 56 56 54
91 91 92 87 80 79 81 81 63 31 19 41 67 82 90 85 67 58 71 88 96 98 98 98 100 102 102 101 100 99 100 100 100 100 101 100 101 101 100 100 100 100 100 101 101 100 100 102 103 103 104 100 80 60 58 65 68 65 62 61 67 77 85 89 92 93 95 97 96 95 95 95 95 95 94 94 93 89 84 78 70 62 57 53 51 54
97 96 95 85 69 60 59 54 40 19 8 16 27 32 37 39 31 27 38 54 64 71 75 79 86 95 101 103 103 102 102 102 101 102 102 101 101 102 101 101 101 100 101 102 101 101 103 102 101 103 103 91 70 60 65 73 75 72 67 68 79 89 94 97 99 100 102 102 100 100 101 101 101 100 97 96 94 89 82 75 67 59 55 52 49 51
100 96 93 79 51 32 28 24 21 19 15 15 16 14 14 17 16 16 22 31 38 47 54 58 64 72 80 86 89 90 89 89 90 92 93 95 99 102 102 102 102 101 101 101 102 103 103 102 102 104 96 78 64 64 74 81 82 78 75 81 93 99 100 102 103 103 105 105 103 104 105 105 104 102 98 95 91 84 75 67 59 53 50 50 50 51
92 81 76 63 36 19 19 19 19 23 23 19 18 17 16 16 17 19 24 30 35 43 50 54 56 58 59 62 63 64 65 66 69 73 78 85 94 101 103 102 102 101 102 103 103 103 102 102 102 96 82 69 67 75 84 90 90 86 86 95 101 102 102 104 105 105 106 106 106 107 106 105 104 100 95 90 81 73 65 59 54 51 47 46 48 51
Wind_Speed
22 22 22 22 23 24 25 26 26 28 29 31 33 35 37 40 42 44 46 47 49 49 50 50 50 49 49 49 48 48 48 48 48 48 49 49 50 51 52 52 53 53 53 54 54 55 55 56 57 57 58 58 59 59 60 61 62 63 64 66 68 70 72 74 76 78 80 82 84 86 87 89 90 91 91 89 87 86 86 87 87 85 84 82 80 78
22 22 22 23 24 25 25 26 27 29 31 33 35 38 40 43 44 46 48 48 49 49 49 49 48 47 48 48 48 47 47 47 48 48 49 49 50 51 51 52 52 52 53 53 54 55 55 56 56 57 57 57 57 57 58 59 59 60 61 63 64 66 69 71 74 77 79 82 84 86 88 89 90 92 92 92 91 89 88 88 88 88 87 85 83 80
22 22 23 24 24 25 26 27 29 30 33 35 38 40 42 44 45 46 48 48 48 48 48 48 47 47 47 47 47 47 47 48 48 48 48 49 49 50 50 50 51 52 52 53 53 54 54 55 55 55 55 55 55 56 56 57 58 58 59 60 61 63 64 66 68 71 74 77 81 85 88 90 91 92 93 94 94 92 90 89 89 90 90 88 87 84
22 22 23 24 25 26 27 29 31 33 35 37 39 41 42 44 45 46 47 47 48 48 48 47 47 47 47 47 47 47 47 48 48 48 48 48 48 49 49 49 50 50 51 52 52 52 53 53 53 53 53 53 53 54 55 56 57 57 58 58 59 60 61 62 64 65 66 69 72 76 81 86 89 92 93 95 95 95 93 91 90 91 91 91 89 88
22 23 23 24 25 27 29 31 33 35 37 39 40 41 42 44 45 45 46 47 48 48 48 48 47 46 46 46 47 47 47 47 47 47 47 47 47 48 48 48 49 49 50 50 50 50 50 50 50 50 51 51 52 53 54 55 56 56 57 57 58 59 59 60 61 61 62 62 63 66 70 75 81 86 90 92 95 96 95 94 92 91 92 92 91 90
22 23 24 25 26 28 30 33 34 36 37 39 40 41 42 43 44 45 46 46 47 47 47 48 48 46 45 47 47 47 47 47 46 46 46 46 46 47 47 47 48 49 49 49 49 49 49 49 49 49 50 50 51 52 53 54 55 55 56 56 57 57 58 58 59 59 59 59 59 60 61 64 70 76 81 86 89 93 95 94 92 91 91 92 92 91
22 23 25 26 28 30 32 33 35 36 38 39 40 41 42 43 44 44 45 45 46 46 47 47 48 47 46 46 47 47 47 47 46 46 46 46 46 46 46 47 47 48 49 49 49 49 49 49 49 49 50 50 51 52 53 53 54 54 55 55 55 55 56 56 56 56 56 56 57 57 57 58 60 65 71 77 81 85 90 92 91 90 90 91 92 92
23 24 26 27 29 31 33 34 36 37 38 39 40 41 42 43 43 44 44 45 45 45 46 47 48 48 47 46 47 47 47 47 47 47 47 46 46 46 46 47 47 48 48 49 49 49 50 50 49 50 50 51 51 52 53 53 54 54 55 55 54 55 55 55 55 56 56 55 55 55 56 56 56 58 62 68 73 77 81 86 89 89 87 88 90 91
24 25 27 29 31 32 34 35 36 37 38 40 41 41 42 43 43 44 44 44 44 45 46 46 47 48 47 45 46 47 46 47 47 47 47 46 46 46 46 47 48 48 49 49 49 50 50 50 50 50 51 51 52 52 53 53 54 55 55 55 55 55 54 54 54 55 55 55 54 54 54 55 55 55 56 59 65 70 74 77 83 86 86 85 87 89
25 26 28 30 32 33 34 36 37 38 39 41 42 42 43 43 43 44 44 44 44 44 44 45 46 47 47 44 45 46 46 47 47 47 47 46 46 47 47 48 49 49 49 49 49 50 51 52 52 51 52 52 53 53 53 54 54 55 55 56 55 55 55 54 54 54 54 54 54 54 53 54 55 54 53 54 57 63 69 72 75 80 84 84 84 86
26 28 29 31 33 34 35 36 37 39 40 41 42 42 43 43 44 44 44 44 44 44 44 45 46 48 48 45 46 47 47 48 48 47 47 47 47 48 49 49 50 50 50 50 50 50 51 52 53 53 53 53 54 54 54 55 55 55 56 56 56 56 56 55 54 54 54 54 53 53 53 53 54 54 53 52 53 55 61 68 71 73 78 82 83 83
28 29 31 32 33 34 36 37 38 39 40 41 42 43 43 44 44 44 44 44 45 45 46 47 47 48 47 45 46 48 49 49 48 47 47 47 48 49 50 50 50 51 51 50 50 50 51 52 53 53 53 54 54 54 55 55 55 55 56 56 57 57 57 56 55 55 54 54 53 52 52 52 53 54 54 53 52 53 55 60 66 71 73 76 80 82
29 30 32 33 34 35 37 38 39 40 41 41 42 42 43 44 44 44 44 45 45 46 47 48 48 48 46 43 45 48 49 49 49 47 46 47 49 50 50 50 51 51 51 51 51 50 51 51 52 53 54 54 55 55 55 55 55 56 56 57 57 57 58 57 56 56 55 54 54 53 52 52 52 53 54 54 53 53 53 55 59 66 71 73 75 78
30 31 32 34 35 36 37 39 40 40 41 42 42 42 43 44 44 45 46 46 46 47 48 48 49 49 46 43 44 47 48 48 49 49 47 47 49 50 50 51 52 52 52 52 51 51 51 52 53 53 54 55 55 56 56 56 56 56 57 57 58 58 58 58 58 57 56 55 54 54 53 53 52 52 53 54 55 54 54 55 56 60 66 71 74 75
31 32 33 35 36 37 38 40 41 41 42 42 42 44 44 44 45 45 46 47 47 48 48 49 50 50 47 44 44 47 47 47 50 51 50 49 49 50 50 51 52 53 53 53 53 53 53 53 53 54 55 56 56 57 57 57 57 57 57 58 58 59 59 59 58 58 57 57 56 55 54 54 53 53 52 53 54 55 54 54 56 58 61 66 71 74
33 33 34 36 37 38 39 40 41 42 43 43 44 44 44 44 45 45 46 47 48 48 48 48 50 51 49 44 44 49 48 45 48 52 53 50 49 50 51 51 53 53 54 54 54 54 54 54 55 55 56 57 57 57 57 58 58 58 58 58 59 59 60 60 59 59 58 57 57 56 55 55 54 53 54 53 53 55 56 55 55 57 60 63 67 72
34 34 35 37 38 39 40 41 42 43 43 44 44 44 44 44 44 44 46 47 48 50 49 49 50 52 50 43 42 50 49 46 48 52 54 52 50 51 51 52 54 54 55 55 55 55 55 55 56 57 58 58 58 59 59 59 59 59 59 59 59 60 60 61 60 59 59 58 58 57 57 56 55 55 54 54 54 54 55 57 56 56 58 61 65 68
34 35 36 37 39 40 41 42 43 43 44 44 45 44 44 45 44 44 46 48 49 51 51 50 50 53 50 42 40 47 49 48 50 53 55 54 52 52 52 53 55 55 56 56 56 56 56 56 57 58 59 60 60 60 60 60 61 61 61 61 61 61 61 61 61 60 60 59 58 58 57 57 57 57 56 55 55 55 54 56 57 57 57 59 63 67
36 37 37 38 40 41 42 43 44 44 45 45 45 45 44 45 45 45 46 48 50 53 54 51 51 53 48 41 42 47 48 50 52 54 56 55 52 53 53 54 56 56 57 57 57 57 58 58 58 59 60 61 61 61 61 62 62 62 62 62 62 62 62 62 62 62 61 61 60 59 58 58 58 58 58 57 56 56 55 55 56 58 58 58 60 65
37 38 38 39 41 42 43 44 45 46 46 47 46 45 44 44 44 44 46 48 50 54 56 54 54 52 45 40 45 48 48 51 54 56 57 55 53 53 55 55 56 57 58 58 58 59 59 58 59 60 61 61 62 62 62 63 63 63 63 63 63 63 62 62 63 63 62 62 61 60 60 59 59 59 59 59 59 57 57 56 56 57 58 59 59 62
38 40 40 40 42 44 45 45 46 46 47 48 47 45 44 43 44 45 46 49 50 54 56 56 58 54 43 40 47 49 49 52 56 58 58 56 55 55 56 57 57 58 59 59 60 60 60 59 59 60 61 62 62 63 63 64 64 64 64 64 64 64 63 63 64 64 63 62 62 61 61 61 61 60 59 59 60 60 59 59 58 58 58 59 59 60
40 41 41 42 44 45 45 46 46 47 47 48 48 46 45 43 44 45 47 49 51 55 56 56 61 55 45 43 49 49 50 53 56 60 60 58 57 57 58 58 59 60 60 61 61 61 61 60 60 61 62 63 63 64 64 65 65 66 66 66 66 65 64 65 65 65 64 64 63 62 62 62 62 61 61 60 60 61 60 60 60 60 58 58 60 60
41 42 43 43 44 46 46 46 46 47 48 49 49 48 46 44 44 45 49 51 52 57 57 57 63 58 49 47 53 52 53 55 58 61 61 60 59 59 60 60 60 61 61 62 62 62 62 61 61 62 63 64 65 65 65 66 66 67 67 67 67 66 66 66 66 66 65 64 64 63 63 63 62 62 62 61 61 61 61 60 61 61 59 57 58 60
42 43 44 44 45 46 46 46 46 48 49 50 50 48 46 45 46 47 49 52 54 57 57 58 66 63 55 52 56 55 56 59 60 61 62 62 62 61 61 61 62 63 63 63 64 63 63 63 63 64 64 65 66 66 67 67 68 68 69 69 68 67 67 67 67 67 66 65 64 64 64 63 63 63 62 62 62 62 61 60 60 60 58 57 56 58
43 44 44 45 46 47 46 46 47 48 50 52 51 49 47 47 49 50 51 54 56 55 55 61 69 67 60 58 58 58 59 61 61 62 63 64 64 63 63 63 63 64 64 65 65 65 64 64 65 65 66 67 67 67 68 68 69 70 70 70 70 69 69 69 69 68 67 66 65 64 64 64 63 63 63 62 63 63 62 60 60 58 55 54 54 56
44 44 44 45 47 47 47 47 48 50 52 53 52 50 49 49 51 52 52 56 57 55 57 65 69 66 63 62 60 59 61 63 62 63 64 65 65 65 64 64 65 65 66 66 66 66 65 65 66 66 66 67 68 68 68 69 70 71 72 72 71 71 71 71 70 69 67 67 66 65 64 64 64 63 63 63 62 63 62 60 59 56 52 51 51 52
44 45 44 45 46 46 47 47 49 51 52 54 54 51 49 51 52 51 53 56 57 58 62 65 65 66 67 64 60 59 61 64 64 64 64 65 65 66 65 65 66 66 67 67 67 67 67 67 67 67 67 68 68 68 69 69 70 72 73 73 73 73 74 73 71 70 68 67 66 65 64 63 63 63 63 63 62 62 61 59 58 55 51 49 49 50
45 45 45 45 46 46 46 47 49 51 53 56 56 52 51 52 50 50 54 56 56 60 66 64 61 66 70 65 60 60 62 65 66 65 65 65 66 66 66 66 67 67 68 68 68 69 69 68 68 68 69 69 69 69 69 70 71 73 74 74 74 75 75 74 72 70 69 68 66 65 64 63 63 63 63 62 61 61 60 58 56 53 50 48 48 48
46 46 45 46 47 47 47 47 49 52 55 57 56 53 52 50 48 51 56 56 56 60 65 64 61 66 69 64 60 61 64 66 66 65 66 66 66 67 67 67 68 68 68 69 69 70 70 70 70 70 70 70 70 70 70 71 73 74 75 75 76 77 76 74 72 70 69 68 66 65 64 63 63 63 63 61 59 59 59 57 55 52 48 48 47 47
46 47 46 47 49 49 48 48 50 53 56 58 57 52 49 47 49 54 57 56 58 62 64 64 65 67 65 61 61 64 66 67 66 65 66 67 67 67 68 68 68 68 69 69 70 71 70 70 70 70 70 70 70 71 71 72 74 75 75 77 78 78 76 74 72 70 68 67 66 65 64 63 63 62 61 60 58 58 57 56 54 51 47 47 47 47
46 48 47 49 51 51 49 50 53 55 58 61 57 50 46 49 53 55 56 58 60 64 66 66 69 69 64 61 64 66 67 67 66 66 66 67 67 68 68 68 68 69 69 70 70 71 71 71 71 70 70 70 70 71 72 73 74 75 77 78 79 77 75 73 71 69 68 67 66 65 64 63 63 61 59 58 57 56 55 54 53 50 47 46 46 46
46 48 48 50 54 54 51 52 55 57 62 63 57 50 50 53 55 56 58 61 64 66 68 68 69 69 66 65 67 67 66 66 66 66 67 67 67 68 68 68 68 69 70 70 71 71 71 71 71 71 71 70 70 71 72 74 74 76 78 79 78 75 73 71 69 68 67 67 66 65 64 63 61 59 57 56 55 55 53 52 51 49 46 45 44 45
47 48 48 51 55 55 54 54 56 60 64 63 58 55 55 56 57 60 62 64 65 66 67 67 68 68 68 68 68 67 66 66 66 66 68 68 68 69 69 68 68 69 70 71 72 72 72 71 71 71 71 70 71 72 73 74 75 77 79 78 75 73 71 69 68 67 67 66 64 63 62 61 59 57 55 54 54 53 52 51 50 48 46 44 44 44
47 48 49 52 56 57 55 55 58 62 65 63 60 57 57 58 60 63 63 63 64 65 65 65 67 67 68 68 68 67 67 66 66 67 68 69 70 70 69 68 69 69 71 72 73 73 72 72 71 71 71 70 71 73 73 74 76 78 78 76 73 70 68 67 67 66 65 63 61 60 60 58 57 55 54 53 52 51 50 50 49 47 45 44 43 43
47 49 51 53 56 57 57 57 60 64 65 64 61 58 58 61 63 65 63 61 62 64 64 64 66 67 67 67 67 68 68 67 67 66 67 68 70 70 69 69 69 70 72 73 73 73 73 72 72 71 70 71 72 74 74 75 77 79 77 73 70 67 66 65 65 63 62 60 59 58 57 56 55 54 53 52 51 49 49 49 48 46 44 43 42 42
48 50 51 53 56 58 57 58 62 66 65 62 60 59 61 64 65 65 65 61 59 61 62 65 67 67 66 66 66 67 69 69 68 66 65 67 69 69 69 69 69 71 73 73 74 73 72 72 72 71 71 72 74 74 74 76 78 78 74 70 67 65 63 63 62 60 59 58 57 56 55 55 54 53 52 51 49 48 48 48 48 46 44 42 41 41
49 50 52 54 56 58 59 60 64 68 66 61 59 61 63 64 65 66 67 63 59 58 62 66 66 65 66 66 67 67 70 71 70 66 65 67 68 68 69 69 70 72 73 74 73 72 72 71 70 70 72 73 74 74 74 77 78 76 72 67 64 62 62 62 60 58 57 57 56 55 55 54 53 52 51 50 49 48 48 48 47 46 44 42 41 40
51 51 52 55 58 58 60 63 67 70 67 63 62 64 64 64 65 65 68 67 60 58 63 65 65 66 66 67 68 69 72 74 73 69 67 68 68 68 69 70 71 73 74 73 73 72 71 70 70 71 73 73 73 74 75 77 77 74 69 65 62 61 61 60 59 58 57 57 56 56 55 54 53 52 50 49 49 49 48 48 47 46 44 42 40 40
52 53 54 57 58 59 61 64 68 70 67 63 62 64 63 64 65 66 69 69 63 62 64 65 66 68 67 68 70 72 74 76 75 71 69 70 69 69 70 71 73 75 74 73 72 71 70 69 70 73 74 73 73 75 76 78 76 71 65 62 60 59 60 59 59 58 57 57 57 56 55 54 53 52 51 50 49 49 49 49 48 47 45 43 41 40
53 54 56 58 59 60 63 66 69 69 65 61 62 64 63 65 66 67 70 70 67 66 67 68 69 69 69 71 73 74 76 77 75 72 71 72 71 71 72 74 75 75 74 72 71 69 69 69 72 73 73 73 74 76 77 77 73 68 63 60 59 59 59 59 58 58 57 57 57 57 56 55 54 53 52 51 50 50 50 50 49 47 46 43 41 40
54 55 57 58 60 61 64 68 69 66 60 59 62 63 64 66 66 66 68 70 70 70 69 69 71 71 72 74 76 77 76 74 73 72 71 73 74 74 75 76 75 73 72 70 69 69 69 71 72 72 72 74 75 77 77 75 70 64 61 59 59 59 59 59 58 58 57 58 58 57 57 56 55 54 54 53 52 52 51 51 50 48 46 44 42 40
54 55 57 59 61 63 65 67 68 64 59 58 62 63 64 65 65 65 67 70 71 71 70 71 73 74 75 76 76 76 74 72 72 72 73 74 76 77 76 75 73 71 70 69 69 70 71 72 72 72 73 75 76 77 76 72 66 62 60 59 59 59 59 59 59 58 58 58 58 58 58 57 57 56 55 54 53 52 52 51 50 49 47 45 43 41
54 55 58 60 61 63 65 65 64 62 60 61 62 63 64 64 64 66 69 71 71 72 73 74 74 74 75 75 74 74 73 73 73 74 75 76 76 76 75 73 71 70 69 70 71 72 72 72 72 72 74 75 77 77 74 68 63 61 60 59 59 60 60 59 59 58 58 58 58 58 59 58 58 58 57 55 54 53 52 52 51 49 48 46 44 42
54 55 58 60 61 62 63 61 58 58 61 63 63 63 64 65 67 69 72 74 74 73 74 75 75 74 74 74 75 75 75 75 74 75 75 75 74 73 72 70 70 70 71 72 72 72 72 72 73 74 75 76 76 74 70 65 62 60 59 59 60 60 60 60 59 59 59 59 59 59 59 59 59 59 58 57 55 54 53 52 51 50 48 47 44 42
54 56 59 59 59 59 59 58 57 59 63 64 64 64 65 66 67 70 73 75 75 75 75 76 76 75 75 76 77 77 75 75 74 74 73 72 71 70 70 70 71 72 73 73 72 72 73 73 74 75 76 76 75 71 66 63 61 60 59 59 60 60 60 60 60 60 60 60 60 60 60 59 59 59 58 58 56 55 54 53 51 50 49 47 45 43
55 57 58 58 57 57 56 55 57 60 62 63 64 64 65 66 67 70 73 75 75 76 76 77 78 78 77 77 77 76 75 74 73 72 71 71 71 71 71 72 73 73 73 73 73 74 75 75 76 77 76 75 72 67 64 62 61 60 59 59 60 60 60 60 61 61 61 62 61 61 61 60 59 59 59 58 57 56 55 53 52 50 49 48 45 43
56 57 56 56 57 57 56 54 54 56 58 61 63 63 64 67 69 71 74 75 76 77 77 78 79 79 78 77 76 76 74 73 73 73 72 73 73 73 73 74 73 73 73 74 75 76 76 77 77 77 75 72 68 64 62 62 61 60 60 60 61 61 61 61 62 62 63 63 63 62 62 61 60 59 59 58 57 56 55 54 53 51 50 48 45 43
55 55 54 54 54 55 55 54 54 54 55 58 61 63 66 69 71 74 75 76 78 78 78 78 79 78 78 77 76 76 75 74 75 76 76 76 75 75 75 74 74 75 76 76 77 78 78 78 78 76 73 69 65 62 62 61 61 61 61 61 62 62 62 63 64 64 64 64 64 64 63 62 61 60 59 58 58 57 56 55 54 52 50 49 46 43
53 53 53 53 51 51 53 55 57 58 56 56 60 64 67 71 74 76 77 77 78 79 79 79 78 78 78 78 78 78 78 78 78 79 78 78 77 77 76 77 77 77 78 78 78 78 78 78 76 72 68 65 62 61 61 61 61 62 62 62 63 64 64 65 65 65 66 66 66 65 64 63 62 60 60 59 58 58 57 56 54 52 51 50 47 44
51 51 51 51 51 52 54 56 61 64 64 63 65 67 70 73 75 77 78 79 80 80 80 80 78 77 77 78 79 79 79 79 79 79 79 78 78 78 78 78 78 78 78 78 78 78 77 75 71 68 64 62 61 61 60 61 62 63 63 64 65 65 66 67 67 67 67 67 67 66 65 64 62 61 60 59 58 58 57 56 54 53 51 50 48 46
48 48 50 52 53 55 57 59 62 66 69 69 70 72 74 75 77 79 80 81 81 81 81 81 80 78 77 77 78 79 79 79 79 79 79 78 78 78 78 78 78 78 78 78 78 77 73 70 66 64 62 61 60 61 61 62 63 63 64 65 66 67 68 69 68 68 68 68 68 67 66 64 63 62 61 60 59 58 56 55 54 53 52 50 48 46
Wind_Direction
300 300 301 303 307 310 311 311 311 311 310 311 311 311 311 312 314 315 316 316 316 315 313 311 309 308 306 304 302 302 301 302 303 304 305 305 306 306 306 306 306 305 305 304 304 303 303 302 302 301 300 300 299 298 297 296 294 293 290 288 285 281 278 275 273 270 269 267 266 265 263 261 259 257 256 255 253 251 249 248 248 247 246 246 245 245
301 301 305 309 311 311 312 312 313 313 313 313 313 314 316 318 320 320 319 318 316 315 314 313 312 310 307 305 304 305 305 306 307 307 308 308 308 308 308 307 307 307 306 306 306 306 306 305 305 304 304 303 303 303 303 302 302 300 298 294 291 286 282 278 274 270 267 265 263 262 261 260 259 258 256 255 254 252 250 248 247 247 246 245 244 244
303 307 310 311 312 313 314 314 315 315 315 316 318 320 322 322 322 321 319 318 318 317 316 315 314 311 308 307 307 308 308 308 309 309 310 310 310 309 309 308 308 308 308 308 308 308 308 308 308 308 308 309 309 310 310 311 310 309 307 304 301 296 291 286 281 276 272 267 264 261 259 258 257 256 255 254 253 252 251 249 247 246 246 245 244 242
308 311 311 312 313 315 315 316 316 317 318 321 323 324 323 322 322 321 320 320 320 319 318 316 316 313 311 309 309 309 309 309 310 311 311 310 310 309 309 309 309 309 309 309 309 309 310 311 312 312 313 314 316 317 318 318 318 318 316 314 311 306 301 296 292 287 282 276 271 266 262 259 257 255 254 253 252 251 250 249 247 246 245 245 244 242
311 311 312 314 316 317 317 318 319 321 323 324 324 324 323 322 322 322 322 323 322 320 318 317 317 316 313 310 310 310 310 311 312 311 311 310 310 310 310 310 310 310 310 310 311 311 313 314 316 317 318 320 321 323 324 325 324 324 322 320 317 314 309 305 301 296 292 286 281 275 270 265 262 259 256 253 251 250 249 249 247 245 244 245 244 243
311 312 314 316 317 318 319 320 321 323 323 323 323 323 322 322 323 324 324 324 322 320 318 318 317 317 315 312 312 312 312 312 312 312 312 311 311 311 311 311 311 312 312 312 313 314 316 318 319 321 322 324 325 327 328 328 328 327 325 323 321 318 315 311 308 304 300 295 289 283 277 272 267 263 260 257 254 251 249 248 247 245 243 243 244 243
312 314 315 317 318 319 320 321 322 323 323 322 322 322 322 322 324 325 324 323 322 320 319 318 317 318 317 314 313 314 313 313 313 313 313 313 313 312 313 313 314 314 315 315 316 318 319 321 322 324 325 326 327 328 329 329 329 328 327 326 323 321 318 316 313 310 307 303 297 290 283 278 272 267 264 261 258 255 252 250 248 246 244 242 242 242
313 315 317 318 319 319 320 321 322 322 322 321 321 321 322 323 325 325 324 323 322 321 319 318 317 317 318 316 315 315 314 314 314 314 314 314 314 313 314 315 315 316 317 318 319 321 322 323 324 325 326 327 328 328 329 329 329 329 328 327 326 323 321 320 318 316 313 309 304 296 289 284 279 274 269 263 260 258 255 253 250 248 246 243 241 241
314 316 317 318 319 320 320 321 321 321 320 320 321 321 322 324 325 324 324 323 322 321 318 317 317 317 319 318 316 315 314 314 314 314 315 315 314 314 315 316 317 318 319 320 321 322 323 324 325 327 327 327 328 328 328 329 329 329 328 328 327 326 324 323 322 320 318 315 311 304 295 288 284 281 277 271 264 259 256 255 253 251 249 245 242 240
315 316 317 318 318 319 319 319 320 319 319 320 320 321 323 324 324 324 324 323 322 320 318 318 318 317 319 319 317 316 316 315 316 316 316 316 315 316 317 317 318 319 319 321 322 323 323 324 326 327 328 328 328 328 328 328 328 328 328 327 327 326 326 324 324 323 322 319 316 311 302 293 286 284 283 279 273 266 260 256 254 253 251 248 245 241
314 316 316 317 317 318 318 318 318 318 319 319 320 322 323 323 324 323 323 322 321 320 319 319 319 318 320 321 319 318 318 317 317 317 317 316 316 317 318 318 318 319 320 321 322 323 324 325 326 327 328 328 328 327 327 327 327 327 326 326 325 325 325 325 325 325 325 323 320 315 308 299 291 286 285 283 279 274 267 260 256 254 253 251 248 244
314 315 315 316 316 316 316 317 317 318 318 319 321 322 323 323 323 322 322 321 320 321 320 320 320 320 321 322 320 319 319 318 317 317 317 317 317 318 318 318 318 319 320 321 322 324 324 324 325 327 327 328 327 326 326 325 325 325 325 324 324 324 324 324 325 325 325 325 323 319 313 305 296 289 286 285 282 278 273 266 260 256 254 253 250 247
312 313 314 314 314 315 315 316 317 318 318 320 321 322 322 321 321 321 321 321 321 321 321 321 321 320 321 322 321 320 319 318 318 317 318 318 318 318 318 318 318 318 319 320 322 323 324 324 325 325 326 326 327 326 325 324 323 323 323 322 322 322 322 322 323 324 324 325 325 322 317 311 303 294 287 285 284 281 277 272 266 260 255 253 252 250
311 312 312 312 314 315 315 316 317 317 318 320 321 321 321 321 321 321 321 321 322 322 322 322 321 320 321 323 322 319 318 318 317 317 317 319 319 318 319 318 318 318 319 320 321 323 324 324 324 324 325 325 325 325 324 323 322 322 322 321 321 320 320 320 321 321 322 323 324 323 321 315 308 301 293 287 284 283 280 276 271 265 259 255 253 252
309 311 312 313 314 315 316 316 316 317 318 320 321 320 321 321 321 321 321 322 322 322 323 322 321 321 322 324 322 318 317 318 317 316 317 319 319 318 318 319 318 319 319 319 321 322 322 323 323 323 323 324 324 324 323 322 322 321 321 320 320 319 319 319 319 319 320 321 321 322 322 319 313 306 300 293 287 283 282 279 275 270 264 258 254 252
309 310 311 312 313 314 315 315 316 317 318 319 319 319 320 321 321 321 321 321 320 321 322 321 321 321 321 326 323 316 316 319 318 316 316 318 319 318 318 319 319 319 319 319 320 321 321 321 322 322 323 323 324 324 323 322 321 321 320 319 319 318 318 317 317 317 317 318 318 319 319 319 316 310 304 298 293 286 282 280 278 273 267 262 257 253
308 309 310 311 312 313 314 315 316 317 317 319 319 319 320 320 321 320 320 320 319 320 321 321 322 321 322 328 323 314 317 321 317 314 315 318 320 318 319 320 320 319 319 319 319 320 320 320 321 321 322 322 323 323 323 322 321 321 320 319 319 318 317 316 315 315 315 315 315 316 317 317 317 314 309 302 297 292 286 281 279 276 271 265 260 256
307 308 310 311 312 314 314 315 316 316 317 318 319 320 320 319 320 320 320 320 319 318 319 321 323 322 325 331 321 314 319 321 317 315 315 319 320 319 320 320 320 319 319 319 319 319 319 320 320 320 321 322 322 322 323 322 322 321 320 319 319 318 317 316 315 314 313 313 313 313 314 315 315 315 313 308 300 295 292 286 281 277 275 270 263 258
307 308 310 311 312 313 314 315 316 316 318 318 318 319 319 319 319 320 320 320 319 317 317 320 322 323 329 331 320 317 322 321 318 316 317 320 320 319 320 320 319 319 318 318 319 319 319 319 319 319 320 321 321 322 322 322 322 321 320 319 319 318 317 316 315 314 312 312 312 311 311 312 313 313 313 311 306 299 294 291 286 280 276 273 267 260
308 309 310 312 313 314 315 316 316 317 318 318 318 318 319 319 318 320 320 319 319 316 316 319 320 324 333 330 319 320 323 321 317 316 317 320 320 319 320 320 319 319 318 318 318 318 319 319 318 318 319 320 320 321 321 322 322 321 321 320 319 318 317 316 315 314 312 311 310 310 309 309 310 311 312 312 309 304 298 294 291 285 278 273 270 264
309 310 312 314 314 314 315 316 316 317 317 317 318 318 318 318 318 320 320 319 318 315 315 317 316 325 339 330 319 322 323 320 316 316 319 320 320 320 320 320 319 318 318 318 318 318 318 319 318 318 318 319 319 320 320 321 322 322 321 320 319 318 317 316 315 313 312 311 310 309 308 307 308 309 310 311 310 306 301 297 295 290 283 276 270 266
311 312 313 314 315 315 315 316 316 317 317 316 317 317 318 318 318 320 318 318 317 313 314 314 312 324 342 329 318 322 321 318 316 316 319 320 319 320 320 320 319 318 318 317 317 318 318 318 318 317 317 318 318 319 320 320 321 321 321 320 319 318 317 315 315 313 312 310 309 308 307 306 306 307 308 309 310 308 303 300 298 294 287 279 272 267
312 313 314 314 315 315 316 316 316 316 317 316 316 316 317 317 319 319 317 317 315 312 316 312 308 322 339 325 317 322 321 317 315 316 319 319 319 319 319 320 319 317 317 317 317 318 318 318 318 317 317 317 318 318 319 319 320 321 321 320 319 318 316 315 314 313 312 310 308 307 306 306 305 305 307 308 308 308 305 301 300 297 290 282 274 268
312 313 314 314 315 315 316 316 315 317 316 315 315 316 316 318 319 318 317 316 313 314 317 310 306 319 331 321 318 322 320 316 315 316 318 318 318 319 319 319 318 317 317 317 317 318 318 318 318 317 318 317 318 318 318 319 319 320 320 320 319 317 316 315 314 313 311 310 308 306 305 305 305 304 305 306 307 308 306 303 302 299 292 284 276 270
312 313 315 315 315 316 316 315 316 316 316 315 316 315 316 319 319 319 317 313 312 316 316 306 306 317 323 318 320 322 318 315 316 317 317 317 318 319 318 319 318 317 317 317 317 318 318 318 317 318 318 317 318 318 317 318 318 319 320 319 318 317 316 315 314 313 311 309 307 306 305 304 305 304 304 304 305 307 306 305 304 300 293 286 280 273
313 314 315 315 316 316 316 316 316 316 316 315 315 315 317 320 320 319 316 312 313 316 311 306 310 317 318 317 321 322 316 314 316 316 316 316 317 318 318 318 317 316 317 317 318 318 317 317 318 318 318 317 317 317 317 317 318 318 319 319 318 317 317 316 314 313 311 309 307 306 304 304 304 304 303 303 304 306 307 306 305 301 292 287 284 277
313 314 315 315 315 315 315 316 316 316 316 315 315 315 317 320 321 318 314 312 315 313 307 309 314 314 314 318 322 319 314 313 316 316 315 315 317 317 317 317 316 316 317 317 318 318 317 318 318 318 318 317 317 317 316 317 317 318 318 318 317 317 317 316 314 313 310 308 307 305 304 304 304 304 303 302 303 306 307 306 306 301 291 287 286 281
313 314 315 314 314 315 315 315 316 316 316 315 314 315 319 322 320 315 313 315 315 310 307 312 315 311 313 320 321 316 312 313 315 315 314 315 316 317 317 316 315 316 317 318 318 317 317 318 318 318 318 317 316 316 316 316 317 318 318 318 317 317 317 316 314 313 310 308 307 305 304 304 304 304 303 302 302 305 306 306 306 301 291 287 287 284
313 315 315 313 314 315 315 316 315 315 316 315 313 317 323 323 318 314 314 315 312 306 308 313 312 310 314 320 318 313 312 313 314 314 314 315 316 317 316 315 315 316 317 318 317 317 317 317 317 318 317 317 316 315 316 317 317 318 318 318 318 317 317 316 314 312 310 309 307 306 305 304 304 304 304 302 302 304 306 305 305 301 292 287 287 285
313 315 314 313 314 315 316 316 315 315 316 313 314 321 324 320 315 314 314 312 308 307 309 311 310 311 317 319 314 311 311 313 314 314 314 315 316 317 315 314 315 316 317 317 316 316 316 316 316 317 316 316 315 315 316 317 318 318 318 318 318 317 317 316 315 313 311 309 308 307 306 305 304 304 304 303 303 305 305 305 305 301 292 287 287 286
314 314 314 313 313 317 318 316 315 316 314 313 317 323 322 317 316 315 312 310 308 309 311 311 311 314 317 315 311 310 312 314 314 314 313 314 316 315 314 313 314 315 316 315 315 315 315 315 316 316 315 315 315 315 316 317 317 318 318 318 318 318 317 316 315 313 312 310 309 308 307 306 305 306 306 305 304 305 305 305 305 301 292 287 286 286
313 313 314 313 313 317 318 316 316 316 313 314 320 323 320 318 316 313 310 310 310 311 312 312 313 315 315 312 310 312 314 314 313 313 313 315 315 314 313 313 314 315 315 314 314 314 314 315 315 315 315 315 315 315 316 317 317 318 318 318 318 318 317 316 316 314 312 311 310 309 307 307 307 307 307 306 306 306 305 305 305 301 293 287 286 286
313 313 314 313 313 316 317 316 316 314 313 316 321 321 320 318 314 311 311 312 313 313 313 314 314 313 312 311 312 313 313 313 313 313 314 315 315 313 312 313 314 314 314 314 314 314 314 314 314 314 314 314 315 315 316 316 317 318 318 318 318 318 317 317 316 315 313 312 311 310 309 309 310 310 309 308 308 307 306 305 305 302 294 288 287 286
314 313 313 313 313 315 316 316 314 313 314 318 321 321 320 316 312 311 312 314 314 314 314 314 312 310 311 312 313 313 312 312 312 313 315 316 314 312 312 313 314 314 314 314 314 314 314 314 313 314 314 314 314 315 316 316 318 318 318 318 318 317 317 317 317 316 315 314 312 311 311 311 312 312 311 310 309 307 307 307 306 303 296 290 287 287
314 313 313 313 312 314 316 315 312 313 316 320 321 321 318 313 311 312 313 314 315 315 316 313 309 310 312 313 312 312 311 311 311 313 316 315 313 312 312 313 314 314 314 314 314 314 313 313 313 313 313 314 314 315 316 317 318 319 318 318 317 317 318 318 317 317 316 315 313 313 313 313 313 313 312 311 310 309 308 308 308 305 298 291 289 288
314 313 313 312 312 314 315 314 311 312 319 324 324 320 316 313 314 314 312 314 317 318 314 310 310 313 313 312 311 311 310 310 310 313 316 314 312 312 312 312 312 313 313 313 313 313 312 312 313 313 313 314 314 315 317 318 319 319 318 317 317 317 318 317 318 318 317 316 315 315 315 315 314 314 313 312 311 310 310 310 309 306 300 293 290 289
314 313 313 312 313 314 314 312 311 312 321 329 326 319 317 315 316 315 313 316 321 317 311 309 311 313 311 310 311 310 309 309 310 313 314 312 311 311 311 311 312 312 313 313 312 312 312 312 312 312 313 314 315 316 317 318 318 318 317 317 317 317 317 317 318 318 317 316 316 316 316 315 315 315 314 313 312 311 311 311 310 308 303 296 291 290
314 314 314 313 315 315 313 313 312 313 323 332 326 319 318 316 316 315 313 317 321 315 310 311 312 311 311 311 310 309 309 309 310 312 313 311 310 311 310 311 312 312 312 312 312 312 312 312 312 313 313 314 315 316 318 318 318 317 316 316 316 316 317 317 317 317 316 316 316 315 315 315 315 315 314 313 312 311 311 311 310 309 306 299 293 291
314 314 314 314 315 315 313 312 312 315 326 332 324 318 318 316 316 315 313 316 318 314 311 312 312 312 312 310 309 309 310 310 312 314 313 312 312 312 311 312 312 312 313 312 312 312 312 312 313 313 314 315 316 317 317 317 317 316 316 315 315 316 316 316 316 316 316 315 315 315 315 315 315 315 314 313 312 311 310 310 310 309 307 301 295 291
314 314 315 315 315 313 312 312 313 318 328 330 321 317 317 316 316 316 314 316 317 315 314 314 313 313 312 310 310 311 311 313 314 315 315 314 313 313 312 313 313 313 312 312 312 312 312 312 313 314 314 315 316 317 317 317 316 315 315 315 315 315 315 315 315 316 315 314 314 314 314 314 314 313 313 312 311 310 309 309 309 308 307 303 297 292
314 315 315 315 313 312 312 312 316 323 329 325 318 317 317 316 317 316 315 316 317 316 315 315 314 313 312 311 312 312 313 314 314 315 315 314 313 313 313 313 313 312 312 312 312 312 312 313 313 314 314 315 316 316 316 316 315 314 314 314 314 314 315 314 315 315 314 313 313 313 313 313 312 312 311 310 310 309 308 307 307 307 306 303 298 293
315 316 315 313 312 312 314 316 320 325 326 320 316 317 316 316 317 316 315 315 315 315 314 314 314 313 313 313 313 313 314 314 314 315 314 313 313 313 313 313 313 312 312 312 312 312 312 313 313 314 314 315 315 316 315 314 314 313 313 313 313 314 314 314 314 314 314 313 312 312 312 312 311 311 310 309 309 308 307 306 305 305 304 303 299 293
317 316 313 312 312 314 317 320 324 325 322 318 317 317 317 317 317 315 314 314 315 315 314 314 314 314 314 313 313 313 313 313 314 314 313 313 313 313 313 313 312 312 312 312 312 312 313 313 313 313 314 315 315 315 314 313 312 312 312 312 312 313 313 314 314 314 313 312 312 311 311 311 310 310 309 308 307 307 306 305 304 303 302 301 299 294
317 314 311 312 315 318 320 322 324 322 318 316 317 317 317 317 316 314 314 315 316 316 315 314 314 314 313 312 312 312 312 313 313 313 312 312 313 312 312 312 312 312 312 312 312 312 312 313 313 313 314 314 314 314 313 311 311 311 311 311 312 313 313 314 313 313 312 312 311 311 311 310 309 309 308 307 306 306 305 304 303 302 301 299 297 293
314 311 311 316 319 319 320 321 321 319 316 316 317 317 316 316 316 315 314 315 316 316 315 314 313 313 313 312 312 313 313 314 313 313 312 312 312 312 312 312 312 312 312 312 312 312 312 312 312 313 314 314 313 312 311 310 310 311 311 311 312 312 313 313 313 312 312 311 311 311 310 310 309 308 307 306 306 305 304 304 303 301 300 298 296 293
312 312 315 319 319 318 319 321 319 319 318 318 317 318 317 317 317 316 315 315 316 316 315 314 313 313 313 313 313 314 314 314 313 312 312 312 311 311 311 311 311 311 311 312 312 311 312 312 312 313 314 313 312 311 310 310 310 310 310 311 312 312 313 313 312 312 311 311 311 310 310 309 308 307 306 306 305 304 304 303 302 300 298 296 295 292
313 316 318 319 317 318 321 322 320 322 323 321 320 320 319 318 318 318 317 316 316 316 315 314 314 314 315 315 314 314 313 313 312 311 310 310 310 310 310 310 311 311 311 311 311 311 311 311 312 313 313 312 311 310 309 309 309 309 310 311 312 313 313 312 312 312 311 311 310 310 309 309 308 307 306 305 305 304 303 302 301 299 297 295 293 290
316 318 318 318 319 321 322 322 322 325 329 326 323 322 320 319 320 320 319 317 316 315 315 315 315 315 315 314 314 313 312 311 310 310 310 310 310 310 310 310 310 310 310 310 310 310 310 311 312 313 312 311 310 309 309 309 309 309 310 311 312 312 312 312 312 311 311 310 310 309 309 308 307 306 305 305 304 303 302 301 300 298 296 294 292 289
317 318 317 319 323 324 324 324 323 326 330 330 327 325 324 322 321 321 319 317 316 316 316 316 316 316 315 314 313 312 311 311 310 310 310 310 310 310 310 310 310 309 309 309 309 310 311 311 312 312 311 309 309 309 309 309 309 309 310 311 312 312 311 311 311 311 311 310 309 309 308 307 306 305 304 304 303 302 301 300 299 297 295 293 291 288
319 319 320 322 326 327 328 329 328 328 330 331 329 328 326 324 323 322 321 319 318 318 318 318 318 317 316 315 314 313 312 312 312 311 311 311 310 310 309 309 309 309 309 309 310 311 311 312 311 311 310 309 309 309 310 309 309 309 310 311 311 311 311 311 311 311 310 310 309 308 307 306 306 304 304 303 302 301 300 299 297 296 293 291 289 287
321 323 324 325 328 330 332 332 331 329 330 330 329 328 326 325 324 323 322 321 321 320 320 320 320 319 318 317 316 315 315 314 314 312 312 311 310 310 310 310 309 309 310 310 311 311 312 312 311 310 310 310 310 310 310 310 309 309 310 311 311 311 311 311 310 310 310 309 308 308 307 306 305 304 303 302 301 300 299 297 296 294 292 289 287 285